| time (UTC) | temp C | wind direction | speed KPH | gust KPH | rain 1hr cm | rain 24hr cm | rain mn cm | humidity % | barometer mb |
| 20260504190229 | 15 | 261 | 0.0 | 29.0 | 0.00 | 0.00 | 0.00 | 46 | 1000.3 |
| 20260504190222 | 15 | 250 | 0.0 | 29.0 | 0.00 | 0.00 | 0.00 | 47 | 1000.3 |
| 20260504190149 | 15 | 282 | 0.0 | 29.0 | 0.00 | 0.00 | 0.00 | 45 | 1000.3 |
| 20260504185807 | 15 | 279 | 0.0 | 29.0 | 0.00 | 0.00 | 0.00 | 45 | 1000.4 |
| 20260504185609 | 15 | 258 | 0.0 | 27.4 | 0.00 | 0.00 | 0.00 | 43 | 1000.3 |
| 20260504185423 | 15 | 251 | 0.0 | 22.5 | 0.00 | 0.00 | 0.00 | 45 | 1000.4 |
| 20260504185406 | 15 | 264 | 0.0 | 22.5 | 0.00 | 0.00 | 0.00 | 45 | 1000.3 |
| 20260504185220 | 15 | 221 | 0.0 | 24.1 | 0.00 | 0.00 | 0.00 | 42 | 1000.2 |
| 20260504185215 | 15 | 196 | 0.0 | 22.5 | 0.00 | 0.00 | 0.00 | 45 | 1000.2 |
| 20260504185147 | 15 | 221 | 0.0 | 14.5 | 0.00 | 0.00 | 0.00 | 42 | 1000.2 |
| 20260504184858 | 15 | 221 | 0.0 | 24.1 | 0.00 | 0.00 | 0.00 | 42 | 1000.3 |
| 20260504184531 | 15 | 221 | 0.0 | 24.1 | 0.00 | 0.00 | 0.00 | 42 | 1000.1 |
| 20260504184408 | 15 | 221 | 0.0 | 24.1 | 0.00 | 0.00 | 0.00 | 42 | 1000.1 |
| 20260504184331 | 15 | 221 | 0.0 | 24.1 | 0.00 | 0.00 | 0.00 | 42 | 1000.1 |
| 20260504184210 | 15 | 254 | 0.0 | 29.0 | 0.00 | 0.00 | 0.00 | 44 | 1000.2 |
| 20260504184156 | 15 | 217 | 0.0 | 29.0 | 0.00 | 0.00 | 0.00 | 42 | 1000.0 |
| 20260504184124 | 15 | 254 | 0.0 | 29.0 | 0.00 | 0.00 | 0.00 | 44 | 1000.2 |
| 20260504183709 | 15 | 261 | 0.0 | 29.0 | 0.00 | 0.00 | 0.00 | 41 | 1000.1 |
| 20260504183509 | 15 | 259 | 0.0 | 29.0 | 0.00 | 0.00 | 0.00 | 42 | 1000.0 |
| 20260504183409 | 15 | 278 | 0.0 | 29.0 | 0.00 | 0.00 | 0.00 | 41 | 1000.0 |
| 20260504183310 | 15 | 258 | 0.0 | 20.9 | 0.00 | 0.00 | 0.00 | 41 | 1000.1 |
| 20260504183209 | 16 | 262 | 0.0 | 22.5 | 0.00 | 0.00 | 0.00 | 44 | 1000.0 |
| 20260504182910 | 16 | 271 | 0.0 | 22.5 | 0.00 | 0.00 | 0.00 | 40 | 1000.0 |
| 20260504182710 | 16 | 313 | 0.0 | 22.5 | 0.00 | 0.00 | 0.00 | 40 | 999.8 |
| 20260504182511 | 16 | 313 | 0.0 | 25.7 | 0.00 | 0.00 | 0.00 | 40 | 999.9 |
| 20260504182420 | 16 | 233 | 0.0 | 25.7 | 0.00 | 0.00 | 0.00 | 42 | 999.9 |
| 20260504182411 | 16 | 261 | 0.0 | 25.7 | 0.00 | 0.00 | 0.00 | 41 | 999.8 |
| 20260504182110 | 17 | 243 | 0.0 | 25.7 | 0.00 | 0.00 | 0.00 | 42 | 999.8 |
| 20260504181909 | 17 | 244 | 0.0 | 25.7 | 0.00 | 0.00 | 0.00 | 46 | 999.7 |
| 20260504181709 | 17 | 252 | 0.0 | 25.7 | 0.00 | 0.00 | 0.00 | 39 | 999.7 |
| 20260504181610 | 16 | 116 | 0.0 | 16.1 | 0.00 | 0.00 | 0.00 | 40 | 999.5 |
| 20260504181408 | 16 | 142 | 0.0 | 16.1 | 0.00 | 0.00 | 0.00 | 40 | 999.7 |
| 20260504181309 | 16 | 142 | 0.0 | 16.1 | 0.00 | 0.00 | 0.00 | 40 | 999.7 |
| 20260504181108 | 17 | 245 | 0.0 | 16.1 | 0.00 | 0.00 | 0.00 | 40 | 999.7 |
| 20260504180918 | 17 | 295 | 0.0 | 16.1 | 0.00 | 0.00 | 0.00 | 40 | 999.7 |
| 20260504180904 | 17 | 269 | 0.0 | 16.1 | 0.00 | 0.00 | 0.00 | 40 | 999.6 |
| 20260504180709 | 17 | 243 | 0.0 | 16.1 | 0.00 | 0.00 | 0.00 | 44 | 999.5 |
| 20260504180509 | 17 | 209 | 0.0 | 16.1 | 0.00 | 0.00 | 0.00 | 45 | 999.5 |
| 20260504180402 | 17 | 261 | 0.0 | 16.1 | 0.00 | 0.00 | 0.00 | 43 | 999.4 |
| 20260504180310 | 17 | 179 | 0.0 | 16.1 | 0.00 | 0.00 | 0.00 | 44 | 999.4 |
| 20260504180109 | 17 | 247 | 0.0 | 16.1 | 0.00 | 0.00 | 0.00 | 42 | 999.3 |
| 20260504180017 | 18 | 240 | 0.0 | 14.5 | 0.00 | 0.00 | 0.00 | 46 | 999.1 |
| 20260504175902 | 18 | 240 | 0.0 | 16.1 | 0.00 | 0.00 | 0.00 | 46 | 999.1 |
| 20260504175710 | 17 | 109 | 0.0 | 16.1 | 0.00 | 0.00 | 0.00 | 45 | 999.1 |
| 20260504175510 | 17 | 241 | 0.0 | 16.1 | 0.00 | 0.00 | 0.00 | 43 | 999.3 |
| 20260504175403 | 17 | 217 | 0.0 | 17.7 | 0.00 | 0.00 | 0.00 | 41 | 999.2 |
| 20260504175310 | 18 | 217 | 0.0 | 17.7 | 0.00 | 0.00 | 0.00 | 44 | 999.2 |
| 20260504175109 | 17 | 189 | 0.0 | 17.7 | 0.00 | 0.00 | 0.00 | 46 | 999.1 |
| 20260504174916 | 17 | 261 | 0.0 | 17.7 | 0.00 | 0.00 | 0.00 | 45 | 999.2 |
| 20260504174901 | 17 | 241 | 0.0 | 17.7 | 0.00 | 0.00 | 0.00 | 45 | 999.2 |
| 20260504174716 | 17 | 254 | 0.0 | 17.7 | 0.00 | 0.00 | 0.00 | 43 | 999.2 |
| 20260504174711 | 17 | 259 | 0.0 | 17.7 | 0.00 | 0.00 | 0.00 | 45 | 999.2 |
| 20260504174701 | 17 | 240 | 0.0 | 17.7 | 0.00 | 0.00 | 0.00 | 47 | 999.2 |
| 20260504174639 | 17 | 245 | 0.0 | 17.7 | 0.00 | 0.00 | 0.00 | 47 | 999.1 |
| 20260504174110 | 17 | 272 | 0.0 | 17.7 | 0.00 | 0.00 | 0.00 | 44 | 999.1 |
| 20260504173915 | 17 | 230 | 0.0 | 17.7 | 0.00 | 0.00 | 0.00 | 46 | 999.0 |
| 20260504173903 | 17 | 230 | 0.0 | 17.7 | 0.00 | 0.00 | 0.00 | 46 | 999.1 |
| 20260504173710 | 17 | 230 | 0.0 | 17.7 | 0.00 | 0.00 | 0.00 | 46 | 999.1 |
| 20260504173513 | 17 | 210 | 0.0 | 14.5 | 0.00 | 0.00 | 0.00 | 47 | 999.0 |
| 20260504173352 | 17 | 250 | 0.0 | 14.5 | 0.00 | 0.00 | 0.00 | 46 | 999.0 |
| 20260504173308 | -17 | 219 | 0.0 | 6.4 | 0.00 | 0.00 | 0.00 | 999.0 | |
| 20260504173107 | 17 | 219 | 0.0 | 8.0 | 0.00 | 0.00 | 0.00 | 48 | 999.0 |
| 20260504173011 | 17 | 219 | 0.0 | 11.3 | 0.00 | 0.00 | 0.00 | 48 | 998.9 |
| 20260504172852 | 17 | 219 | 0.0 | 11.3 | 0.00 | 0.00 | 0.00 | 48 | 998.9 |
| 20260504172705 | 17 | 219 | 0.0 | 11.3 | 0.00 | 0.00 | 0.00 | 48 | 999.0 |
| 20260504172505 | 17 | 219 | 0.0 | 11.3 | 0.00 | 0.00 | 0.00 | 48 | 999.0 |
| 20260504172352 | 17 | 219 | 0.0 | 11.3 | 0.00 | 0.00 | 0.00 | 48 | 999.0 |
| 20260504172304 | 17 | 248 | 0.0 | 16.1 | 0.00 | 0.00 | 0.00 | 48 | 999.0 |
| 20260504172107 | 17 | 240 | 0.0 | 20.9 | 0.00 | 0.00 | 0.00 | 47 | 998.9 |
| 20260504171907 | 17 | 281 | 0.0 | 20.9 | 0.00 | 0.00 | 0.00 | 47 | 998.9 |
| 20260504171850 | 17 | 281 | 0.0 | 20.9 | 0.00 | 0.00 | 0.00 | 48 | 998.9 |
| 20260504171707 | 17 | 259 | 0.0 | 24.1 | 0.00 | 0.00 | 0.00 | 48 | 998.9 |
| 20260504171454 | 17 | 230 | 0.0 | 24.1 | 0.00 | 0.00 | 0.00 | 49 | 999.0 |
| 20260504171356 | 17 | 237 | 0.0 | 24.1 | 0.00 | 0.00 | 0.00 | 45 | 999.0 |
| 20260504171352 | 17 | 244 | 0.0 | 24.1 | 0.00 | 0.00 | 0.00 | 46 | 999.0 |
| 20260504171053 | 17 | 258 | 0.0 | 24.1 | 0.00 | 0.00 | 0.00 | 49 | 998.8 |
| 20260504170853 | 17 | 258 | 0.0 | 24.1 | 0.00 | 0.00 | 0.00 | 49 | 999.0 |
| 20260504170654 | 17 | 151 | 0.0 | 11.3 | 0.00 | 0.00 | 0.00 | 50 | 998.8 |
| 20260504170645 | 17 | 243 | 0.0 | 20.9 | 0.00 | 0.00 | 0.00 | 50 | 998.9 |
| 20260504170625 | 17 | 243 | 0.0 | 11.3 | 0.00 | 0.00 | 0.00 | 50 | 998.8 |
| 20260504170257 | 17 | 243 | 0.0 | 27.4 | 0.00 | 0.00 | 0.00 | 50 | 998.9 |
| 20260504160337 | 17 | 238 | 0.0 | 9.7 | 0.00 | 0.00 | 0.00 | 46 | 998.7 |
| 20260504160155 | 17 | 261 | 0.0 | 17.7 | 0.00 | 0.00 | 0.00 | 47 | 998.8 |
| 20260504160120 | 17 | 261 | 0.0 | 22.5 | 0.00 | 0.00 | 0.00 | 47 | 998.7 |
| 20260504150928 | 16 | 240 | 0.0 | 14.5 | 0.00 | 0.00 | 0.00 | 49 | 998.7 |
| 20260504150814 | 16 | 272 | 0.0 | 14.5 | 0.00 | 0.00 | 0.00 | 49 | 998.7 |
| 20260504150712 | 15 | 290 | 0.0 | 16.1 | 0.00 | 0.00 | 0.00 | 50 | 998.7 |
| 20260504150512 | 15 | 290 | 0.0 | 16.1 | 0.00 | 0.00 | 0.00 | 50 | 998.6 |
| 20260504150312 | 15 | 290 | 0.0 | 16.1 | 0.00 | 0.00 | 0.00 | 50 | 998.6 |
| 20260504150119 | 16 | 248 | 0.0 | 16.1 | 0.00 | 0.00 | 0.00 | 49 | 998.7 |
| 20260504141256 | 16 | 247 | 0.0 | 16.1 | 0.00 | 0.00 | 0.00 | 54 | 998.2 |
| 20260504141056 | 16 | 247 | 0.0 | 16.1 | 0.00 | 0.00 | 0.00 | 54 | 998.2 |
| 20260504140847 | 16 | 233 | 0.0 | 16.1 | 0.00 | 0.00 | 0.00 | 54 | 998.1 |
| 20260504140754 | 16 | 262 | 0.0 | 16.1 | 0.00 | 0.00 | 0.00 | 54 | 998.1 |
| 20260504140632 | 16 | 262 | 0.0 | 16.1 | 0.00 | 0.00 | 0.00 | 54 | 998.1 |
| 20260504140432 | 16 | 303 | 0.0 | 11.3 | 0.00 | 0.00 | 0.00 | 54 | 998.0 |
| 20260504140231 | 16 | 219 | 0.0 | 11.3 | 0.00 | 0.00 | 0.00 | 54 | 998.0 |
| 20260504130643 | 15 | 223 | 0.0 | 20.9 | 0.00 | 0.00 | 0.00 | 54 | 997.5 |
| 20260504130445 | 15 | 223 | 0.0 | 20.9 | 0.00 | 0.00 | 0.00 | 54 | 997.4 |
| 20260504130243 | 15 | 252 | 0.0 | 20.9 | 0.00 | 0.00 | 0.00 | 53 | 997.5 |
| 20260504130134 | 15 | 266 | 0.0 | 20.9 | 0.00 | 0.00 | 0.00 | 53 | 997.5 |
| 20260504120144 | 14 | 227 | 0.0 | 20.9 | 0.00 | 0.00 | 0.00 | 53 | 996.8 |
| 20260504110714 | 15 | 179 | 0.0 | 20.9 | 0.00 | 0.00 | 0.00 | 50 | 996.1 |
| 20260504110413 | 14 | 216 | 0.0 | 20.9 | 0.00 | 0.00 | 0.00 | 50 | 996.1 |
| 20260504110217 | 14 | 216 | 0.0 | 20.9 | 0.00 | 0.00 | 0.00 | 50 | 996.1 |
| 20260504100447 | 14 | 206 | 0.0 | 14.5 | 0.00 | 0.00 | 0.00 | 51 | 996.6 |
| 20260504100351 | 14 | 206 | 0.0 | 14.5 | 0.00 | 0.00 | 0.00 | 51 | 996.6 |
| 20260504100347 | 14 | 206 | 0.0 | 14.5 | 0.00 | 0.00 | 0.00 | 51 | 996.6 |
| 20260504081936 | 13 | 206 | 0.0 | 16.1 | 0.00 | 0.00 | 0.00 | 51 | 998.3 |
| 20260504081701 | 13 | 209 | 0.0 | 14.5 | 0.00 | 0.00 | 0.00 | 51 | 998.4 |
| 20260504081629 | 13 | 210 | 0.0 | 14.5 | 0.00 | 0.00 | 0.00 | 51 | 998.4 |
| 20260504081458 | 13 | 204 | 0.0 | 14.5 | 0.00 | 0.00 | 0.00 | 51 | 998.5 |
| 20260504081450 | 13 | 234 | 0.0 | 14.5 | 0.00 | 0.00 | 0.00 | 51 | 998.4 |
| 20260504081421 | 13 | 193 | 0.0 | 14.5 | 0.00 | 0.00 | 0.00 | 51 | 998.5 |
| 20260504081029 | 13 | 216 | 0.0 | 16.1 | 0.00 | 0.00 | 0.00 | 51 | 998.6 |
| 20260504080830 | 13 | 216 | 0.0 | 16.1 | 0.00 | 0.00 | 0.00 | 51 | 998.7 |
| 20260504080702 | 13 | 197 | 0.0 | 16.1 | 0.00 | 0.00 | 0.00 | 51 | 998.6 |
| 20260504080603 | 13 | 214 | 0.0 | 16.1 | 0.00 | 0.00 | 0.00 | 50 | 998.5 |
| 20260504080448 | 13 | 212 | 0.0 | 16.1 | 0.00 | 0.00 | 0.00 | 50 | 998.7 |
| 20260504080439 | 13 | 217 | 0.0 | 16.1 | 0.00 | 0.00 | 0.00 | 50 | 998.7 |
| 20260504080135 | 13 | 212 | 0.0 | 16.1 | 0.00 | 0.00 | 0.00 | 50 | 998.7 |
| 20260504070343 | 13 | 237 | 0.0 | 9.7 | 0.00 | 0.00 | 0.00 | 50 | 999.5 |
| 20260504070117 | 13 | 213 | 0.0 | 11.3 | 0.00 | 0.00 | 0.00 | 50 | 999.7 |
| 20260504060204 | -17 | 0.0 | 0.0 | 0.00 | 0.00 | 0.00 | 1001.0 | ||
| 20260504050702 | 9 | 257 | 0.0 | 0.0 | 0.00 | 0.00 | 0.00 | 74 | 1001.7 |
| 20260504050502 | 9 | 257 | 0.0 | 0.0 | 0.00 | 0.00 | 0.00 | 74 | 1001.8 |
| 20260504050403 | 9 | 257 | 0.0 | 0.0 | 0.00 | 0.00 | 0.00 | 74 | 1001.9 |
| 20260504050229 | 9 | 257 | 0.0 | 0.0 | 0.00 | 0.00 | 0.00 | 73 | 1001.8 |
| 20260504045906 | 9 | 257 | 0.0 | 0.0 | 0.00 | 0.00 | 0.00 | 73 | 1001.9 |
| 20260504045831 | 9 | 257 | 0.0 | 0.0 | 0.00 | 0.00 | 0.00 | 73 | 1001.9 |
| 20260504045727 | 9 | 257 | 0.0 | 0.0 | 0.00 | 0.00 | 0.00 | 73 | 1001.9 |
| 20260504045410 | 9 | 257 | 0.0 | 0.0 | 0.00 | 0.00 | 0.00 | 73 | 1002.0 |
| 20260504045405 | 9 | 257 | 0.0 | 0.0 | 0.00 | 0.00 | 0.00 | 73 | 1002.0 |
| 20260504045202 | 9 | 257 | 0.0 | 0.0 | 0.00 | 0.00 | 0.00 | 73 | 1002.0 |
| 20260504045008 | 9 | 257 | 0.0 | 0.0 | 0.00 | 0.00 | 0.00 | 73 | 1002.1 |
| 20260504044853 | 9 | 257 | 0.0 | 0.0 | 0.00 | 0.00 | 0.00 | 73 | 1002.1 |
| 20260504044802 | 9 | 257 | 0.0 | 0.0 | 0.00 | 0.00 | 0.00 | 73 | 1002.1 |
| 20260504044603 | 9 | 257 | 0.0 | 0.0 | 0.00 | 0.00 | 0.00 | 73 | 1002.1 |
| 20260504044350 | 9 | 257 | 0.0 | 0.0 | 0.00 | 0.00 | 0.00 | 73 | 1002.2 |
| 20260504044156 | 9 | 257 | 0.0 | 0.0 | 0.00 | 0.00 | 0.00 | 72 | 1002.2 |
| 20260504043945 | 9 | 257 | 0.0 | 0.0 | 0.00 | 0.00 | 0.00 | 72 | 1002.3 |
| 20260504043847 | 9 | 257 | 0.0 | 0.0 | 0.00 | 0.00 | 0.00 | 72 | 1002.3 |
| 20260504043733 | 10 | 257 | 0.0 | 0.0 | 0.00 | 0.00 | 0.00 | 69 | 1002.3 |
| 20260504043535 | 10 | 257 | 0.0 | 0.0 | 0.00 | 0.00 | 0.00 | 69 | 1002.4 |
| 20260504043335 | 10 | 257 | 0.0 | 0.0 | 0.00 | 0.00 | 0.00 | 69 | 1002.4 |
| 20260504043110 | 10 | 257 | 0.0 | 0.0 | 0.00 | 0.00 | 0.00 | 69 | 1002.4 |
| 20260504042947 | 10 | 257 | 0.0 | 0.0 | 0.00 | 0.00 | 0.00 | 69 | 1002.4 |
| 20260504042837 | 10 | 257 | 0.0 | 0.0 | 0.00 | 0.00 | 0.00 | 69 | 1002.5 |
| 20260504042647 | 10 | 257 | 0.0 | 0.0 | 0.00 | 0.00 | 0.00 | 69 | 1002.5 |
| 20260504042432 | 10 | 257 | 0.0 | 0.0 | 0.00 | 0.00 | 0.00 | 69 | 1002.5 |
| 20260504042330 | 10 | 257 | 0.0 | 0.0 | 0.00 | 0.00 | 0.00 | 69 | 1002.5 |
| 20260504042232 | 10 | 257 | 0.0 | 0.0 | 0.00 | 0.00 | 0.00 | 67 | 1002.6 |
| 20260504042036 | 10 | 257 | 0.0 | 0.0 | 0.00 | 0.00 | 0.00 | 67 | 1002.6 |
| 20260504041806 | 10 | 257 | 0.0 | 0.0 | 0.00 | 0.00 | 0.00 | 67 | 1002.6 |
| 20260504041618 | 10 | 257 | 0.0 | 0.0 | 0.00 | 0.00 | 0.00 | 67 | 1002.6 |
| 20260504041614 | 10 | 257 | 0.0 | 0.0 | 0.00 | 0.00 | 0.00 | 67 | 1002.6 |
| 20260504041544 | 10 | 257 | 0.0 | 0.0 | 0.00 | 0.00 | 0.00 | 67 | 1002.6 |
| 20260504041250 | 10 | 257 | 0.0 | 0.0 | 0.00 | 0.00 | 0.00 | 67 | 1002.6 |
| 20260504041157 | 10 | 257 | 0.0 | 0.0 | 0.00 | 0.00 | 0.00 | 67 | 1002.7 |
| 20260504041112 | 10 | 257 | 0.0 | 0.0 | 0.00 | 0.00 | 0.00 | 67 | 1002.7 |
| 20260504040734 | 10 | 257 | 0.0 | 0.0 | 0.00 | 0.00 | 0.00 | 67 | 1002.7 |
| 20260504040535 | 10 | 257 | 0.0 | 0.0 | 0.00 | 0.00 | 0.00 | 67 | 1002.7 |
| 20260504040334 | 10 | 257 | 0.0 | 0.0 | 0.00 | 0.00 | 0.00 | 67 | 1002.8 |
| 20260504040237 | 10 | 257 | 0.0 | 0.0 | 0.00 | 0.00 | 0.00 | 68 | 1002.9 |
| 20260504040141 | 10 | 257 | 0.0 | 0.0 | 0.00 | 0.00 | 0.00 | 63 | 1002.9 |
| 20260504040108 | 10 | 257 | 0.0 | 0.0 | 0.00 | 0.00 | 0.00 | 68 | 1002.9 |
| 20260504035732 | 10 | 257 | 0.0 | 0.0 | 0.00 | 0.00 | 0.00 | 63 | 1002.9 |
| 20260504035532 | 10 | 257 | 0.0 | 0.0 | 0.00 | 0.00 | 0.00 | 63 | 1003.0 |
| 20260504035317 | 10 | 257 | 0.0 | 0.0 | 0.00 | 0.00 | 0.00 | 63 | 1003.0 |
| 20260504035131 | 10 | 257 | 0.0 | 0.0 | 0.00 | 0.00 | 0.00 | 63 | 1003.0 |
| 20260504035111 | 11 | 257 | 0.0 | 0.0 | 0.00 | 0.00 | 0.00 | 63 | 1003.1 |
| 20260504035049 | 10 | 257 | 0.0 | 0.0 | 0.00 | 0.00 | 0.00 | 63 | 1003.1 |
| 20260504034735 | 11 | 257 | 0.0 | 0.0 | 0.00 | 0.00 | 0.00 | 63 | 1003.1 |
| 20260504034622 | 11 | 257 | 0.0 | 0.0 | 0.00 | 0.00 | 0.00 | 63 | 1003.1 |
| 20260504034303 | 11 | 257 | 0.0 | 0.0 | 0.00 | 0.00 | 0.00 | 63 | 1003.2 |
| 20260504034117 | 11 | 257 | 0.0 | 0.0 | 0.00 | 0.00 | 0.00 | 63 | 1003.3 |
| 20260504034105 | 11 | 257 | 0.0 | 0.0 | 0.00 | 0.00 | 0.00 | 63 | 1003.3 |
| 20260504034038 | 11 | 257 | 0.0 | 0.0 | 0.00 | 0.00 | 0.00 | 63 | 1003.2 |
| 20260504033718 | 11 | 257 | 0.0 | 0.0 | 0.00 | 0.00 | 0.00 | 63 | 1003.3 |
| 20260504033509 | 11 | 257 | 0.0 | 0.0 | 0.00 | 0.00 | 0.00 | 58 | 1003.3 |
| 20260504033308 | 11 | 257 | 0.0 | 0.0 | 0.00 | 0.00 | 0.00 | 58 | 1003.4 |
| 20260504033107 | 11 | 257 | 0.0 | 0.0 | 0.00 | 0.00 | 0.00 | 58 | 1003.4 |
| 20260504033010 | 11 | 257 | 0.0 | 0.0 | 0.00 | 0.00 | 0.00 | 58 | 1003.4 |
| 20260504032708 | 11 | 257 | 0.0 | 0.0 | 0.00 | 0.00 | 0.00 | 58 | 1003.5 |
| 20260504032519 | 11 | 257 | 0.0 | 0.0 | 0.00 | 0.00 | 0.00 | 58 | 1003.4 |
| 20260504032513 | 11 | 257 | 0.0 | 0.0 | 0.00 | 0.00 | 0.00 | 58 | 1003.5 |
| 20260504032443 | 11 | 257 | 0.0 | 0.0 | 0.00 | 0.00 | 0.00 | 58 | 1003.4 |
| 20260504032032 | 11 | 257 | 0.0 | 0.0 | 0.00 | 0.00 | 0.00 | 58 | 1003.5 |
| 20260504031832 | 11 | 257 | 0.0 | 0.0 | 0.00 | 0.00 | 0.00 | 58 | 1003.5 |
| 20260504031725 | 11 | 257 | 0.0 | 1.6 | 0.00 | 0.00 | 0.00 | 58 | 1003.4 |
| 20260504031631 | 11 | 257 | 0.0 | 3.2 | 0.00 | 0.00 | 0.00 | 58 | 1003.5 |
| 20260504031454 | 11 | 257 | 0.0 | 3.2 | 0.00 | 0.00 | 0.00 | 58 | 1003.6 |
| 20260504031439 | 11 | 257 | 0.0 | 3.2 | 0.00 | 0.00 | 0.00 | 58 | 1003.5 |
| 20260504031005 | 11 | 257 | 0.0 | 3.2 | 0.00 | 0.00 | 0.00 | 58 | 1003.5 |
| 20260504030807 | 11 | 257 | 0.0 | 3.2 | 0.00 | 0.00 | 0.00 | 58 | 1003.6 |
| 20260504030635 | 11 | 257 | 0.0 | 1.6 | 0.00 | 0.00 | 0.00 | 58 | 1003.6 |
| 20260504030604 | 11 | 257 | 0.0 | 1.6 | 0.00 | 0.00 | 0.00 | 58 | 1003.6 |
| 20260504030434 | 12 | 257 | 0.0 | 0.0 | 0.00 | 0.00 | 0.00 | 57 | 1003.6 |
| 20260504030422 | 12 | 257 | 0.0 | 0.0 | 0.00 | 0.00 | 0.00 | 57 | 1003.6 |
| 20260504030353 | 12 | 257 | 0.0 | 0.0 | 0.00 | 0.00 | 0.00 | 57 | 1003.6 |
| 20260504025957 | 12 | 257 | 0.0 | 0.0 | 0.00 | 0.00 | 0.00 | 56 | 1003.7 |
| 20260504025755 | 12 | 257 | 0.0 | 0.0 | 0.00 | 0.00 | 0.00 | 56 | 1003.7 |
| 20260504025644 | 12 | 257 | 0.0 | 0.0 | 0.00 | 0.00 | 0.00 | 56 | 1003.8 |
| 20260504025633 | 12 | 257 | 0.0 | 0.0 | 0.00 | 0.00 | 0.00 | 56 | 1003.8 |
| 20260504025341 | 12 | 257 | 0.0 | 0.0 | 0.00 | 0.00 | 0.00 | 56 | 1003.7 |
| 20260504025138 | 12 | 257 | 0.0 | 0.0 | 0.00 | 0.00 | 0.00 | 56 | 1003.8 |
| 20260504024937 | 12 | 257 | 0.0 | 0.0 | 0.00 | 0.00 | 0.00 | 55 | 1003.8 |
| 20260504024739 | 12 | 257 | 0.0 | 0.0 | 0.00 | 0.00 | 0.00 | 55 | 1003.7 |
| 20260504024636 | 12 | 257 | 0.0 | 0.0 | 0.00 | 0.00 | 0.00 | 56 | 1003.7 |
| 20260504024538 | 12 | 257 | 0.0 | 0.0 | 0.00 | 0.00 | 0.00 | 57 | 1003.7 |
| 20260504024419 | 13 | 257 | 0.0 | 0.0 | 0.00 | 0.00 | 0.00 | 52 | 1003.7 |
| 20260504024413 | 13 | 257 | 0.0 | 0.0 | 0.00 | 0.00 | 0.00 | 52 | 1003.8 |
| 20260504024346 | 13 | 257 | 0.0 | 0.0 | 0.00 | 0.00 | 0.00 | 52 | 1003.7 |
| 20260504023934 | 13 | 257 | 0.0 | 0.0 | 0.00 | 0.00 | 0.00 | 52 | 1003.7 |
| 20260504023728 | 13 | 257 | 0.0 | 0.0 | 0.00 | 0.00 | 0.00 | 52 | 1003.8 |
| 20260504023620 | 13 | 257 | 0.0 | 0.0 | 0.00 | 0.00 | 0.00 | 52 | 1003.8 |
| 20260504023508 | 13 | 257 | 0.0 | 0.0 | 0.00 | 0.00 | 0.00 | 52 | 1003.8 |
| 20260504023349 | 13 | 257 | 0.0 | 0.0 | 0.00 | 0.00 | 0.00 | 52 | 1003.8 |
| 20260504023338 | 13 | 257 | 0.0 | 0.0 | 0.00 | 0.00 | 0.00 | 52 | 1003.8 |
| 20260504023035 | 13 | 257 | 0.0 | 0.0 | 0.00 | 0.00 | 0.00 | 52 | 1003.8 |
| 20260504022836 | 13 | 257 | 0.0 | 0.0 | 0.00 | 0.00 | 0.00 | 52 | 1003.8 |
| 20260504022639 | 13 | 257 | 0.0 | 0.0 | 0.00 | 0.00 | 0.00 | 52 | 1003.8 |
| 20260504022605 | 13 | 257 | 0.0 | 0.0 | 0.00 | 0.00 | 0.00 | 52 | 1003.8 |
| 20260504022511 | 13 | 257 | 0.0 | 0.0 | 0.00 | 0.00 | 0.00 | 51 | 1003.8 |
| 20260504022359 | 13 | 257 | 0.0 | 0.0 | 0.00 | 0.00 | 0.00 | 51 | 1003.8 |
| 20260504022331 | 13 | 257 | 0.0 | 0.0 | 0.00 | 0.00 | 0.00 | 51 | 1003.8 |
| 20260504022003 | 13 | 257 | 0.0 | 0.0 | 0.00 | 0.00 | 0.00 | 51 | 1003.8 |
| 20260504021805 | 13 | 257 | 0.0 | 0.0 | 0.00 | 0.00 | 0.00 | 50 | 1003.8 |
| 20260504021612 | 13 | 257 | 0.0 | 0.0 | 0.00 | 0.00 | 0.00 | 50 | 1003.8 |
| 20260504021559 | 13 | 257 | 0.0 | 0.0 | 0.00 | 0.00 | 0.00 | 50 | 1003.8 |
| 20260504021349 | 13 | 257 | 0.0 | 0.0 | 0.00 | 0.00 | 0.00 | 49 | 1003.8 |
| 20260504021150 | 13 | 257 | 0.0 | 0.0 | 0.00 | 0.00 | 0.00 | 49 | 1003.8 |
| 20260504021118 | 13 | 257 | 0.0 | 0.0 | 0.00 | 0.00 | 0.00 | 49 | 1003.8 |
| 20260504020942 | 13 | 257 | 0.0 | 0.0 | 0.00 | 0.00 | 0.00 | 50 | 1003.8 |
| 20260504020836 | 15 | 257 | 0.0 | 0.0 | 0.00 | 0.00 | 0.00 | 47 | 1003.8 |
| 20260504020624 | 15 | 257 | 0.0 | 0.0 | 0.00 | 0.00 | 0.00 | 47 | 1003.8 |
| 20260504020532 | 15 | 257 | 0.0 | 0.0 | 0.00 | 0.00 | 0.00 | 47 | 1003.8 |
| 20260504020332 | 15 | 257 | 0.0 | 0.0 | 0.00 | 0.00 | 0.00 | 47 | 1003.8 |
| 20260504015932 | 15 | 257 | 0.0 | 0.0 | 0.00 | 0.00 | 0.00 | 47 | 1003.8 |
| 20260504015702 | 15 | 257 | 0.0 | 0.0 | 0.00 | 0.00 | 0.00 | 50 | 1003.8 |
| 20260504015608 | 15 | 257 | 0.0 | 0.0 | 0.00 | 0.00 | 0.00 | 50 | 1003.9 |
| 20260504015603 | 15 | 257 | 0.0 | 0.0 | 0.00 | 0.00 | 0.00 | 50 | 1003.8 |
| 20260504015304 | 15 | 257 | 0.0 | 0.0 | 0.00 | 0.00 | 0.00 | 45 | 1003.8 |
| 20260504015104 | 15 | 257 | 0.0 | 1.6 | 0.00 | 0.00 | 0.00 | 45 | 1003.8 |
| 20260504014854 | 15 | 257 | 0.0 | 3.2 | 0.00 | 0.00 | 0.00 | 45 | 1003.8 |
| 20260504014658 | 15 | 257 | 0.0 | 3.2 | 0.00 | 0.00 | 0.00 | 43 | 1003.8 |
| 20260504014556 | 16 | 257 | 0.0 | 3.2 | 0.00 | 0.00 | 0.00 | 43 | 1003.9 |
| 20260504014456 | 16 | 257 | 0.0 | 3.2 | 0.00 | 0.00 | 0.00 | 43 | 1003.8 |
| 20260504014258 | 16 | 257 | 0.0 | 3.2 | 0.00 | 0.00 | 0.00 | 43 | 1004.0 |
| 20260504014039 | -17 | 257 | 0.0 | 3.2 | 0.00 | 0.00 | 0.00 | 1004.0 | |
| 20260504013957 | 16 | 257 | 0.0 | 0.0 | 0.00 | 0.00 | 0.00 | 48 | 1004.0 |
| 20260504013640 | 16 | 257 | 0.0 | 0.0 | 0.00 | 0.00 | 0.00 | 48 | 1004.0 |
| 20260504013534 | 16 | 257 | 0.0 | 0.0 | 0.00 | 0.00 | 0.00 | 48 | 1004.0 |
| 20260504013436 | 16 | 257 | 0.0 | 0.0 | 0.00 | 0.00 | 0.00 | 48 | 1004.0 |
| 20260504013236 | 16 | 257 | 0.0 | 0.0 | 0.00 | 0.00 | 0.00 | 48 | 1004.2 |
| 20260504013028 | 16 | 257 | 0.0 | 1.6 | 0.00 | 0.00 | 0.00 | 48 | 1004.2 |
| 20260504012836 | 17 | 257 | 0.0 | 1.6 | 0.00 | 0.00 | 0.00 | 48 | 1004.2 |
| 20260504012637 | 17 | 257 | 0.0 | 1.6 | 0.00 | 0.00 | 0.00 | 48 | 1004.2 |
| 20260504012529 | 17 | 257 | 0.0 | 1.6 | 0.00 | 0.00 | 0.00 | 48 | 1004.3 |
| 20260504012439 | 17 | 257 | 0.0 | 1.6 | 0.00 | 0.00 | 0.00 | 41 | 1004.3 |
| 20260504012335 | 17 | 257 | 0.0 | 1.6 | 0.00 | 0.00 | 0.00 | 41 | 1004.3 |
| 20260504012037 | 17 | 257 | 0.0 | 1.6 | 0.00 | 0.00 | 0.00 | 41 | 1004.3 |
| 20260504012032 | 17 | 257 | 0.0 | 1.6 | 0.00 | 0.00 | 0.00 | 41 | 1004.2 |
| 20260504011836 | 18 | 257 | 0.0 | 0.0 | 0.00 | 0.00 | 0.00 | 49 | 1004.3 |
| 20260504011633 | 18 | 257 | 0.0 | 0.0 | 0.00 | 0.00 | 0.00 | 42 | 1004.2 |
| 20260504011527 | 18 | 257 | 0.0 | 0.0 | 0.00 | 0.00 | 0.00 | 42 | 1004.2 |
| 20260504011434 | 18 | 257 | 0.0 | 1.6 | 0.00 | 0.00 | 0.00 | 42 | 1004.2 |
| 20260504011235 | 18 | 257 | 0.0 | 1.6 | 0.00 | 0.00 | 0.00 | 42 | 1004.2 |
| 20260504011029 | 18 | 257 | 0.0 | 1.6 | 0.00 | 0.00 | 0.00 | 42 | 1004.2 |
| 20260504010934 | 18 | 257 | 0.0 | 1.6 | 0.00 | 0.00 | 0.00 | 42 | 1004.2 |
| 20260504010627 | 18 | 257 | 0.0 | 1.6 | 0.00 | 0.00 | 0.00 | 42 | 1004.0 |
| 20260504010519 | 18 | 257 | 0.0 | 1.6 | 0.00 | 0.00 | 0.00 | 36 | 1004.2 |
| 20260504010425 | 18 | 257 | 0.0 | 1.6 | 0.00 | 0.00 | 0.00 | 36 | 1004.2 |
| 20260504010228 | 18 | 257 | 0.0 | 1.6 | 0.00 | 0.00 | 0.00 | 41 | 1004.2 |
| 20260504010028 | 19 | 257 | 0.0 | 3.2 | 0.00 | 0.00 | 0.00 | 33 | 1004.3 |
| 20260504010011 | 19 | 257 | 0.0 | 3.2 | 0.00 | 0.00 | 0.00 | 33 | 1004.2 |
| 20260504005827 | 19 | 257 | 0.0 | 3.2 | 0.00 | 0.00 | 0.00 | 33 | 1004.3 |
| 20260504005604 | 19 | 257 | 0.0 | 4.8 | 0.00 | 0.00 | 0.00 | 33 | 1004.2 |
| 20260504005512 | 19 | 257 | 0.0 | 4.8 | 0.00 | 0.00 | 0.00 | 33 | 1004.2 |
| 20260504005407 | 19 | 257 | 0.0 | 4.8 | 0.00 | 0.00 | 0.00 | 33 | 1004.2 |
| 20260504005231 | 19 | 257 | 0.0 | 4.8 | 0.00 | 0.00 | 0.00 | 33 | 1004.3 |
| 20260504005011 | 19 | 257 | 0.0 | 4.8 | 0.00 | 0.00 | 0.00 | 33 | 1004.3 |
| 20260504004930 | 19 | 257 | 0.0 | 4.8 | 0.00 | 0.00 | 0.00 | 33 | 1004.3 |
| 20260504004756 | 19 | 257 | 0.0 | 4.8 | 0.00 | 0.00 | 0.00 | 31 | 1004.2 |
| 20260504004750 | 19 | 257 | 0.0 | 4.8 | 0.00 | 0.00 | 0.00 | 32 | 1004.3 |
| 20260504004723 | 19 | 257 | 0.0 | 4.8 | 0.00 | 0.00 | 0.00 | 31 | 1004.2 |
| 20260504004315 | 19 | 257 | 0.0 | 4.8 | 0.00 | 0.00 | 0.00 | 33 | 1004.3 |
| 20260504004113 | 20 | 257 | 0.0 | 4.8 | 0.00 | 0.00 | 0.00 | 32 | 1004.2 |
| 20260504004014 | 20 | 255 | 0.0 | 4.8 | 0.00 | 0.00 | 0.00 | 32 | 1004.4 |
| 20260504004003 | 20 | 255 | 0.0 | 4.8 | 0.00 | 0.00 | 0.00 | 32 | 1004.4 |
| 20260504003757 | 20 | 255 | 0.0 | 8.0 | 0.00 | 0.00 | 0.00 | 32 | 1004.3 |
| 20260504003749 | 20 | 255 | 0.0 | 4.8 | 0.00 | 0.00 | 0.00 | 32 | 1004.3 |
| 20260504003722 | 20 | 255 | 0.0 | 8.0 | 0.00 | 0.00 | 0.00 | 32 | 1004.3 |
| 20260504003318 | 20 | 255 | 0.0 | 9.7 | 0.00 | 0.00 | 0.00 | 32 | 1004.3 |
| 20260504003112 | 20 | 255 | 0.0 | 9.7 | 0.00 | 0.00 | 0.00 | 32 | 1004.3 |
| 20260504002937 | 20 | 255 | 0.0 | 9.7 | 0.00 | 0.00 | 0.00 | 31 | 1004.4 |
| 20260504002907 | 20 | 255 | 0.0 | 9.7 | 0.00 | 0.00 | 0.00 | 31 | 1004.3 |
| 20260504002733 | 20 | 250 | 0.0 | 9.7 | 0.00 | 0.00 | 0.00 | 31 | 1004.4 |
| 20260504002723 | 20 | 255 | 0.0 | 9.7 | 0.00 | 0.00 | 0.00 | 31 | 1004.4 |
| 20260504002651 | 20 | 252 | 0.0 | 9.7 | 0.00 | 0.00 | 0.00 | 30 | 1004.4 |
| 20260504002409 | -17 | 248 | 0.0 | 3.2 | 0.00 | 0.00 | 0.00 | 1004.3 | |
| 20260504002107 | 20 | 248 | 0.0 | 8.0 | 0.00 | 0.00 | 0.00 | 31 | 1004.5 |
| 20260504001934 | 20 | 248 | 0.0 | 8.0 | 0.00 | 0.00 | 0.00 | 31 | 1004.5 |
| 20260504001856 | 20 | 248 | 0.0 | 8.0 | 0.00 | 0.00 | 0.00 | 31 | 1004.5 |
| 20260504001657 | 20 | 248 | 0.0 | 9.7 | 0.00 | 0.00 | 0.00 | 31 | 1004.5 |
| 20260504001433 | 20 | 248 | 0.0 | 24.1 | 0.00 | 0.00 | 0.00 | 31 | 1004.5 |
| 20260504001232 | 20 | 261 | 0.0 | 24.1 | 0.00 | 0.00 | 0.00 | 31 | 1004.5 |
| 20260504001033 | 20 | 265 | 0.0 | 24.1 | 0.00 | 0.00 | 0.00 | 32 | 1004.5 |
| 20260504000932 | 20 | 241 | 0.0 | 24.1 | 0.00 | 0.00 | 0.00 | 31 | 1004.5 |
| 20260504000832 | 20 | 241 | 0.0 | 24.1 | 0.00 | 0.00 | 0.00 | 31 | 1004.5 |
| 20260504000811 | 20 | 221 | 0.0 | 24.1 | 0.00 | 0.00 | 0.00 | 33 | 1004.5 |
| 20260504000723 | 20 | 250 | 0.0 | 9.7 | 0.00 | 0.00 | 0.00 | 30 | 1004.4 |
| 20260504000638 | 20 | 250 | 0.0 | 9.7 | 0.00 | 0.00 | 0.00 | 30 | 1004.4 |
| 20260504000236 | 20 | 221 | 0.0 | 9.7 | 0.00 | 0.00 | 0.00 | 31 | 1004.4 |
| 20260504000016 | 20 | 238 | 0.0 | 9.7 | 0.00 | 0.00 | 0.00 | 31 | 1004.5 |
| 20260503235918 | 20 | 251 | 0.0 | 9.7 | 0.00 | 0.00 | 0.00 | 32 | 1004.4 |
| 20260503235815 | 20 | 257 | 0.0 | 9.7 | 0.00 | 0.00 | 0.00 | 30 | 1004.5 |
| 20260503235718 | 21 | 262 | 0.0 | 17.7 | 0.00 | 0.00 | 0.00 | 30 | 1004.4 |
| 20260503235659 | 21 | 255 | 0.0 | 17.7 | 0.00 | 0.00 | 0.00 | 32 | 1004.4 |
| 20260503235624 | 21 | 262 | 0.0 | 17.7 | 0.00 | 0.00 | 0.00 | 30 | 1004.4 |
| 20260503235214 | 21 | 262 | 0.0 | 17.7 | 0.00 | 0.00 | 0.00 | 31 | 1004.3 |
| 20260503235004 | 21 | 251 | 0.0 | 17.7 | 0.00 | 0.00 | 0.00 | 31 | 1004.4 |
| 20260503234910 | 21 | 228 | 0.0 | 17.7 | 0.00 | 0.00 | 0.00 | 29 | 1004.4 |
| 20260503234804 | 21 | 227 | 0.0 | 17.7 | 0.00 | 0.00 | 0.00 | 29 | 1004.4 |
| 20260503234744 | 21 | 243 | 0.0 | 17.7 | 0.00 | 0.00 | 0.00 | 29 | 1004.4 |
| 20260503234700 | 21 | 250 | 0.0 | 17.7 | 0.00 | 0.00 | 0.00 | 29 | 1004.5 |
| 20260503234618 | 21 | 250 | 0.0 | 17.7 | 0.00 | 0.00 | 0.00 | 29 | 1004.5 |
| 20260503234206 | 21 | 226 | 0.0 | 17.7 | 0.00 | 0.00 | 0.00 | 29 | 1004.4 |
| 20260503233956 | 21 | 219 | 0.0 | 17.7 | 0.00 | 0.00 | 0.00 | 29 | 1004.5 |
| 20260503233859 | 21 | 223 | 0.0 | 17.7 | 0.00 | 0.00 | 0.00 | 29 | 1004.5 |
| 20260503233801 | 21 | 272 | 0.0 | 16.1 | 0.00 | 0.00 | 0.00 | 29 | 1004.5 |
| 20260503233602 | 22 | 231 | 0.0 | 0.0 | 0.00 | 0.00 | 0.00 | 30 | 1004.5 |
| 20260503233400 | 22 | 241 | 0.0 | 0.0 | 0.00 | 0.00 | 0.00 | 32 | 1004.6 |
| 20260503233200 | 22 | 230 | 0.0 | 4.8 | 0.00 | 0.00 | 0.00 | 32 | 1004.5 |
| 20260503233059 | 22 | 230 | 0.0 | 4.8 | 0.00 | 0.00 | 0.00 | 32 | 1004.5 |
| 20260503232843 | 22 | 230 | 0.0 | 4.8 | 0.00 | 0.00 | 0.00 | 32 | 1004.6 |
| 20260503232746 | 22 | 230 | 0.0 | 4.8 | 0.00 | 0.00 | 0.00 | 32 | 1004.6 |
| 20260503232622 | 22 | 230 | 0.0 | 4.8 | 0.00 | 0.00 | 0.00 | 32 | 1004.7 |
| 20260503232615 | 22 | 230 | 0.0 | 4.8 | 0.00 | 0.00 | 0.00 | 32 | 1004.6 |
| 20260503232549 | 22 | 230 | 0.0 | 4.8 | 0.00 | 0.00 | 0.00 | 32 | 1004.7 |
| 20260503232145 | 22 | 63 | 0.0 | 3.2 | 0.00 | 0.00 | 0.00 | 33 | 1004.7 |
| 20260503231945 | 22 | 63 | 0.0 | 4.8 | 0.00 | 0.00 | 0.00 | 33 | 1004.7 |
| 20260503231832 | 22 | 63 | 0.0 | 4.8 | 0.00 | 0.00 | 0.00 | 33 | 1004.7 |
| 20260503231734 | 22 | 63 | 0.0 | 4.8 | 0.00 | 0.00 | 0.00 | 33 | 1004.8 |
| 20260503231633 | 22 | 61 | 0.0 | 4.8 | 0.00 | 0.00 | 0.00 | 30 | 1004.8 |
| 20260503231610 | 22 | 61 | 0.0 | 4.8 | 0.00 | 0.00 | 0.00 | 30 | 1004.8 |
| 20260503231547 | 22 | 61 | 0.0 | 4.8 | 0.00 | 0.00 | 0.00 | 30 | 1004.8 |
| 20260503231133 | 22 | 42 | 0.0 | 4.8 | 0.00 | 0.00 | 0.00 | 32 | 1004.9 |
| 20260503231041 | 22 | 210 | 0.0 | 0.0 | 0.00 | 0.00 | 0.00 | 29 | 1004.8 |
| 20260503230802 | 22 | 206 | 0.0 | 0.0 | 0.00 | 0.00 | 0.00 | 29 | 1004.8 |
| 20260503230734 | 22 | 206 | 0.0 | 0.0 | 0.00 | 0.00 | 0.00 | 29 | 1004.9 |
| 20260503230554 | 22 | 206 | 0.0 | 6.4 | 0.00 | 0.00 | 0.00 | 29 | 1005.0 |
| 20260503230542 | 22 | 206 | 0.0 | 4.8 | 0.00 | 0.00 | 0.00 | 29 | 1004.9 |
| 20260503230519 | 22 | 206 | 0.0 | 6.4 | 0.00 | 0.00 | 0.00 | 29 | 1005.0 |
| 20260503230107 | 22 | 206 | 0.0 | 6.4 | 0.00 | 0.00 | 0.00 | 29 | 1004.9 |
| 20260503225907 | 22 | 245 | 0.0 | 6.4 | 0.00 | 0.00 | 0.00 | 29 | 1004.9 |
| 20260503225802 | 22 | 245 | 0.0 | 6.4 | 0.00 | 0.00 | 0.00 | 29 | 1004.8 |
| 20260503225634 | 22 | 245 | 0.0 | 6.4 | 0.00 | 0.00 | 0.00 | 29 | 1004.9 |
| 20260503225604 | 22 | 192 | 0.0 | 0.0 | 0.00 | 0.00 | 0.00 | 34 | 1005.0 |
| 20260503225559 | 22 | 192 | 0.0 | 0.0 | 0.00 | 0.00 | 0.00 | 34 | 1005.0 |
| 20260503225531 | 22 | 244 | 0.0 | 4.8 | 0.00 | 0.00 | 0.00 | 30 | 1004.8 |
| 20260503225017 | 22 | 192 | 0.0 | 0.0 | 0.00 | 0.00 | 0.00 | 34 | 1004.9 |
| 20260503224812 | 22 | 192 | 0.0 | 0.0 | 0.00 | 0.00 | 0.00 | 34 | 1004.9 |
| 20260503224731 | 22 | 192 | 0.0 | 0.0 | 0.00 | 0.00 | 0.00 | 34 | 1004.9 |
| 20260503224612 | 22 | 192 | 0.0 | 0.0 | 0.00 | 0.00 | 0.00 | 34 | 1004.9 |
| 20260503224410 | 22 | 93 | 0.0 | 4.8 | 0.00 | 0.00 | 0.00 | 32 | 1005.0 |
| 20260503224204 | 22 | 157 | 0.0 | 11.3 | 0.00 | 0.00 | 0.00 | 29 | 1005.1 |
| 20260503224008 | 21 | 224 | 0.0 | 11.3 | 0.00 | 0.00 | 0.00 | 32 | 1004.9 |
| 20260503224001 | 21 | 197 | 0.0 | 11.3 | 0.00 | 0.00 | 0.00 | 29 | 1005.0 |
| 20260503223934 | 21 | 224 | 0.0 | 11.3 | 0.00 | 0.00 | 0.00 | 28 | 1005.0 |
| 20260503223602 | 21 | 251 | 0.0 | 11.3 | 0.00 | 0.00 | 0.00 | 29 | 1005.0 |
| 20260503223403 | 21 | 240 | 0.0 | 11.3 | 0.00 | 0.00 | 0.00 | 29 | 1005.1 |
| 20260503223212 | 21 | 213 | 0.0 | 9.7 | 0.00 | 0.00 | 0.00 | 29 | 1005.0 |
| 20260503223204 | 21 | 175 | 0.0 | 9.7 | 0.00 | 0.00 | 0.00 | 29 | 1005.1 |
| 20260503223007 | 21 | 175 | 0.0 | 16.1 | 0.00 | 0.00 | 0.00 | 29 | 1005.1 |
| 20260503222928 | 21 | 290 | 0.0 | 16.1 | 0.00 | 0.00 | 0.00 | 28 | 1005.1 |
| 20260503222609 | 21 | 290 | 0.0 | 16.1 | 0.00 | 0.00 | 0.00 | 28 | 1005.1 |
| 20260503222313 | 21 | 210 | 0.0 | 16.1 | 0.00 | 0.00 | 0.00 | 31 | 1005.1 |
| 20260503222211 | 21 | 209 | 0.0 | 16.1 | 0.00 | 0.00 | 0.00 | 31 | 1005.1 |
| 20260503222111 | 21 | 278 | 0.0 | 14.5 | 0.00 | 0.00 | 0.00 | 31 | 1005.2 |
| 20260503221953 | 22 | 278 | 0.0 | 17.7 | 0.00 | 0.00 | 0.00 | 31 | 1005.0 |
| 20260503221940 | 22 | 278 | 0.0 | 17.7 | 0.00 | 0.00 | 0.00 | 31 | 1005.1 |
| 20260503221922 | 22 | 278 | 0.0 | 17.7 | 0.00 | 0.00 | 0.00 | 31 | 1005.0 |
| 20260503221511 | 22 | 206 | 0.0 | 17.7 | 0.00 | 0.00 | 0.00 | 32 | 1005.0 |
| 20260503221312 | 22 | 216 | 0.0 | 17.7 | 0.00 | 0.00 | 0.00 | 30 | 1005.1 |
| 20260503221209 | 22 | 224 | 0.0 | 17.7 | 0.00 | 0.00 | 0.00 | 29 | 1005.1 |
| 20260503221111 | 22 | 278 | 0.0 | 17.7 | 0.00 | 0.00 | 0.00 | 29 | 1005.1 |
| 20260503221013 | 22 | 250 | 0.0 | 11.3 | 0.00 | 0.00 | 0.00 | 32 | 1005.1 |
| 20260503220704 | 22 | 240 | 0.0 | 11.3 | 0.00 | 0.00 | 0.00 | 32 | 1005.0 |
| 20260503220511 | 21 | 251 | 0.0 | 11.3 | 0.00 | 0.00 | 0.00 | 32 | 1005.0 |
| 20260503220311 | 21 | 144 | 0.0 | 11.3 | 0.00 | 0.00 | 0.00 | 32 | 1005.0 |
| 20260503220206 | 21 | 59 | 0.0 | 16.1 | 0.00 | 0.00 | 0.00 | 31 | 1005.0 |
| 20260503220111 | 21 | 214 | 0.0 | 16.1 | 0.00 | 0.00 | 0.00 | 31 | 1005.0 |
| 20260503220005 | 21 | 228 | 0.0 | 20.9 | 0.00 | 0.00 | 0.00 | 29 | 1005.2 |
| 20260503215941 | 21 | 235 | 0.0 | 20.9 | 0.00 | 0.00 | 0.00 | 31 | 1005.2 |
| 20260503215918 | 21 | 228 | 0.0 | 20.9 | 0.00 | 0.00 | 0.00 | 29 | 1005.2 |
| 20260503215507 | 21 | 251 | 0.0 | 20.9 | 0.00 | 0.00 | 0.00 | 29 | 1005.1 |
| 20260503215305 | 21 | 247 | 0.0 | 20.9 | 0.00 | 0.00 | 0.00 | 29 | 1005.2 |
| 20260503215210 | 22 | 252 | 0.0 | 20.9 | 0.00 | 0.00 | 0.00 | 31 | 1005.1 |
| 20260503215205 | 21 | 245 | 0.0 | 20.9 | 0.00 | 0.00 | 0.00 | 30 | 1005.2 |
| 20260503215008 | 21 | 248 | 0.0 | 9.7 | 0.00 | 0.00 | 0.00 | 36 | 1005.1 |
| 20260503214945 | 22 | 257 | 0.0 | 14.5 | 0.00 | 0.00 | 0.00 | 32 | 1005.0 |
| 20260503214918 | 21 | 248 | 0.0 | 9.7 | 0.00 | 0.00 | 0.00 | 36 | 1005.1 |
| 20260503214508 | 21 | 259 | 0.0 | 14.5 | 0.00 | 0.00 | 0.00 | 32 | 1005.1 |
| 20260503214307 | 22 | 272 | 0.0 | 14.5 | 0.00 | 0.00 | 0.00 | 33 | 1005.2 |
| 20260503214207 | 22 | 272 | 0.0 | 14.5 | 0.00 | 0.00 | 0.00 | 33 | 1005.1 |
| 20260503214059 | 22 | 272 | 0.0 | 14.5 | 0.00 | 0.00 | 0.00 | 33 | 1005.1 |
| 20260503213921 | 22 | 272 | 0.0 | 14.5 | 0.00 | 0.00 | 0.00 | 33 | 1005.1 |
| 20260503213909 | 22 | 272 | 0.0 | 14.5 | 0.00 | 0.00 | 0.00 | 33 | 1005.2 |
| 20260503213846 | 22 | 272 | 0.0 | 14.5 | 0.00 | 0.00 | 0.00 | 33 | 1005.2 |
| 20260503213557 | 22 | 165 | 0.0 | 14.5 | 0.00 | 0.00 | 0.00 | 31 | 1005.2 |
| 20260503213258 | 22 | 238 | 0.0 | 8.0 | 0.00 | 0.00 | 0.00 | 33 | 1005.3 |
| 20260503213131 | 22 | 202 | 0.0 | 9.7 | 0.00 | 0.00 | 0.00 | 34 | 1005.2 |
| 20260503213059 | 21 | 233 | 0.0 | 14.5 | 0.00 | 0.00 | 0.00 | 36 | 1005.2 |
| 20260503212900 | 21 | 233 | 0.0 | 14.5 | 0.00 | 0.00 | 0.00 | 36 | 1005.3 |
| 20260503212632 | 21 | 233 | 0.0 | 16.1 | 0.00 | 0.00 | 0.00 | 36 | 1005.2 |
| 20260503212441 | 21 | 209 | 0.0 | 17.7 | 0.00 | 0.00 | 0.00 | 36 | 1005.3 |
| 20260503212240 | 21 | 240 | 0.0 | 17.7 | 0.00 | 0.00 | 0.00 | 35 | 1005.3 |
| 20260503212128 | 21 | 274 | 0.0 | 17.7 | 0.00 | 0.00 | 0.00 | 35 | 1005.2 |
| 20260503212033 | 21 | 188 | 0.0 | 17.7 | 0.00 | 0.00 | 0.00 | 32 | 1005.4 |
| 20260503212016 | 21 | 252 | 0.0 | 17.7 | 0.00 | 0.00 | 0.00 | 33 | 1005.3 |
| 20260503211931 | 21 | 251 | 0.0 | 17.7 | 0.00 | 0.00 | 0.00 | 32 | 1005.2 |
| 20260503211842 | 21 | 261 | 0.0 | 17.7 | 0.00 | 0.00 | 0.00 | 32 | 1005.2 |
| 20260503211434 | 22 | 254 | 0.0 | 14.5 | 0.00 | 0.00 | 0.00 | 32 | 1005.3 |
| 20260503211230 | 22 | 250 | 0.0 | 14.5 | 0.00 | 0.00 | 0.00 | 34 | 1005.2 |
| 20260503211129 | 22 | 255 | 0.0 | 14.5 | 0.00 | 0.00 | 0.00 | 32 | 1005.2 |
| 20260503211032 | 22 | 209 | 0.0 | 14.5 | 0.00 | 0.00 | 0.00 | 32 | 1005.2 |
| 20260503210909 | 22 | 76 | 0.0 | 6.4 | 0.00 | 0.00 | 0.00 | 34 | 1005.3 |
| 20260503210858 | 22 | 76 | 0.0 | 6.4 | 0.00 | 0.00 | 0.00 | 34 | 1005.3 |
| 20260503210608 | 22 | 6 | 0.0 | 8.0 | 0.00 | 0.00 | 0.00 | 34 | 1005.3 |
| 20260503210402 | 21 | 114 | 0.0 | 8.0 | 0.00 | 0.00 | 0.00 | 32 | 1005.4 |
| 20260503210205 | 21 | 114 | 0.0 | 11.3 | 0.00 | 0.00 | 0.00 | 32 | 1005.4 |
| 20260503210130 | 21 | 114 | 0.0 | 11.3 | 0.00 | 0.00 | 0.00 | 32 | 1005.4 |
| 20260503210108 | 21 | 114 | 0.0 | 11.3 | 0.00 | 0.00 | 0.00 | 32 | 1005.4 |
| 20260503205858 | 21 | 234 | 0.0 | 11.3 | 0.00 | 0.00 | 0.00 | 32 | 1005.5 |
| 20260503205842 | 21 | 114 | 0.0 | 11.3 | 0.00 | 0.00 | 0.00 | 32 | 1005.4 |
| 20260503205548 | 21 | 231 | 0.0 | 11.3 | 0.00 | 0.00 | 0.00 | 34 | 1005.5 |
| 20260503205335 | 21 | 238 | 0.0 | 11.3 | 0.00 | 0.00 | 0.00 | 34 | 1005.5 |
| 20260503205135 | -17 | 0.0 | 0.0 | 0.00 | 0.00 | 0.00 | 1005.5 | ||
| 20260503205103 | 22 | 266 | 0.0 | 16.1 | 0.00 | 0.00 | 0.00 | 33 | 1005.5 |
| 20260503204937 | 22 | 266 | 0.0 | 16.1 | 0.00 | 0.00 | 0.00 | 33 | 1005.5 |
| 20260503204737 | 22 | 266 | 0.0 | 16.1 | 0.00 | 0.00 | 0.00 | 33 | 1005.6 |
| 20260503204602 | 22 | 266 | 0.0 | 16.1 | 0.00 | 0.00 | 0.00 | 33 | 1005.5 |
| 20260503204507 | 22 | 266 | 0.0 | 16.1 | 0.00 | 0.00 | 0.00 | 33 | 1005.5 |
| 20260503204410 | 22 | 266 | 0.0 | 16.1 | 0.00 | 0.00 | 0.00 | 33 | 1005.6 |
| 20260503204059 | 22 | 274 | 0.0 | 11.3 | 0.00 | 0.00 | 0.00 | 38 | 1005.6 |
| 20260503204036 | 22 | 180 | 0.0 | 11.3 | 0.00 | 0.00 | 0.00 | 38 | 1005.6 |
| 20260503203857 | 21 | 8 | 0.0 | 11.3 | 0.00 | 0.00 | 0.00 | 35 | 1005.6 |
| 20260503203648 | 21 | 254 | 0.0 | 11.3 | 0.00 | 0.00 | 0.00 | 35 | 1005.6 |
| 20260503203530 | 21 | 248 | 0.0 | 11.3 | 0.00 | 0.00 | 0.00 | 33 | 1005.6 |
| 20260503203446 | 21 | 245 | 0.0 | 11.3 | 0.00 | 0.00 | 0.00 | 33 | 1005.6 |
| 20260503203238 | 21 | 248 | 0.0 | 11.3 | 0.00 | 0.00 | 0.00 | 32 | 1005.7 |
| 20260503203034 | 21 | 6 | 0.0 | 8.0 | 0.00 | 0.00 | 0.00 | 35 | 1005.7 |
| 20260503202833 | 21 | 244 | 0.0 | 8.0 | 0.00 | 0.00 | 0.00 | 32 | 1005.7 |
| 20260503202736 | 22 | 266 | 0.0 | 8.0 | 0.00 | 0.00 | 0.00 | 32 | 1005.8 |
| 20260503202531 | 22 | 266 | 0.0 | 8.0 | 0.00 | 0.00 | 0.00 | 32 | 1005.9 |
| 20260503202432 | 22 | 266 | 0.0 | 8.0 | 0.00 | 0.00 | 0.00 | 32 | 1005.8 |
| 20260503202215 | 22 | 255 | 0.0 | 8.0 | 0.00 | 0.00 | 0.00 | 34 | 1005.8 |
| 20260503202022 | 21 | 221 | 0.0 | 8.0 | 0.00 | 0.00 | 0.00 | 34 | 1005.7 |
| 20260503202014 | 21 | 221 | 0.0 | 8.0 | 0.00 | 0.00 | 0.00 | 34 | 1005.8 |
| 20260503201816 | 21 | 221 | 0.0 | 8.0 | 0.00 | 0.00 | 0.00 | 34 | 1005.8 |
| 20260503201616 | 21 | 221 | 0.0 | 17.7 | 0.00 | 0.00 | 0.00 | 34 | 1005.8 |
| 20260503201518 | 21 | 221 | 0.0 | 17.7 | 0.00 | 0.00 | 0.00 | 34 | 1005.9 |
| 20260503201407 | 21 | 223 | 0.0 | 17.7 | 0.00 | 0.00 | 0.00 | 34 | 1005.9 |
| 20260503201210 | 21 | 264 | 0.0 | 17.7 | 0.00 | 0.00 | 0.00 | 35 | 1005.9 |
| 20260503201110 | 21 | 254 | 0.0 | 17.7 | 0.00 | 0.00 | 0.00 | 34 | 1006.0 |
| 20260503201014 | 21 | 254 | 0.0 | 17.7 | 0.00 | 0.00 | 0.00 | 34 | 1006.0 |
| 20260503200739 | 21 | 223 | 0.0 | 17.7 | 0.00 | 0.00 | 0.00 | 34 | 1006.1 |
| 20260503200543 | 21 | 233 | 0.0 | 8.0 | 0.00 | 0.00 | 0.00 | 32 | 1006.0 |
| 20260503200509 | 21 | 247 | 0.0 | 8.0 | 0.00 | 0.00 | 0.00 | 33 | 1006.0 |
| 20260503200333 | 22 | 45 | 0.0 | 8.0 | 0.00 | 0.00 | 0.00 | 35 | 1006.2 |
| 20260503200133 | 21 | 241 | 0.0 | 6.4 | 0.00 | 0.00 | 0.00 | 36 | 1006.1 |
| 20260503200008 | 21 | 326 | 0.0 | 6.4 | 0.00 | 0.00 | 0.00 | 32 | 1006.1 |
| 20260503195935 | 21 | 257 | 0.0 | 0.0 | 0.00 | 0.00 | 0.00 | 32 | 1006.1 |
| 20260503195719 | 21 | 7 | 0.0 | 4.8 | 0.00 | 0.00 | 0.00 | 34 | 1006.2 |
| 20260503195507 | 21 | 7 | 0.0 | 14.5 | 0.00 | 0.00 | 0.00 | 34 | 1006.2 |
| 20260503195306 | 21 | 7 | 0.0 | 14.5 | 0.00 | 0.00 | 0.00 | 34 | 1006.3 |
| 20260503195203 | 21 | 7 | 0.0 | 14.5 | 0.00 | 0.00 | 0.00 | 34 | 1006.2 |
| 20260503195002 | 21 | 7 | 0.0 | 14.5 | 0.00 | 0.00 | 0.00 | 34 | 1006.2 |
| 20260503194904 | 21 | 7 | 0.0 | 14.5 | 0.00 | 0.00 | 0.00 | 34 | 1006.2 |
| 20260503194702 | 21 | 227 | 0.0 | 16.1 | 0.00 | 0.00 | 0.00 | 36 | 1006.3 |
| 20260503194504 | 21 | 130 | 0.0 | 16.1 | 0.00 | 0.00 | 0.00 | 34 | 1006.3 |
| 20260503194447 | 21 | 10 | 0.0 | 16.1 | 0.00 | 0.00 | 0.00 | 34 | 1006.3 |
| 20260503194305 | 21 | 8 | 0.0 | 16.1 | 0.00 | 0.00 | 0.00 | 34 | 1006.3 |
| 20260503194101 | 21 | 252 | 0.0 | 16.1 | 0.00 | 0.00 | 0.00 | 36 | 1006.3 |
| 20260503193943 | 21 | 241 | 0.0 | 16.1 | 0.00 | 0.00 | 0.00 | 36 | 1006.3 |
| 20260503193902 | 21 | 233 | 0.0 | 16.1 | 0.00 | 0.00 | 0.00 | 36 | 1006.3 |
| 20260503193701 | 21 | 240 | 0.0 | 9.7 | 0.00 | 0.00 | 0.00 | 34 | 1006.2 |
| 20260503193603 | 21 | 275 | 0.0 | 9.7 | 0.00 | 0.00 | 0.00 | 34 | 1006.3 |
| 20260503193437 | 21 | 276 | 0.0 | 9.7 | 0.00 | 0.00 | 0.00 | 34 | 1006.3 |
| 20260503193302 | 21 | 274 | 0.0 | 11.3 | 0.00 | 0.00 | 0.00 | 37 | 1006.3 |
| 20260503193103 | 21 | 179 | 0.0 | 24.1 | 0.00 | 0.00 | 0.00 | 38 | 1006.3 |
| 20260503192930 | 21 | 179 | 0.0 | 24.1 | 0.00 | 0.00 | 0.00 | 38 | 1006.3 |
| 20260503192902 | 21 | 179 | 0.0 | 24.1 | 0.00 | 0.00 | 0.00 | 38 | 1006.3 |
| 20260503192725 | 21 | 292 | 0.0 | 24.1 | 0.00 | 0.00 | 0.00 | 36 | 1006.2 |
| 20260503192719 | 21 | 171 | 0.0 | 24.1 | 0.00 | 0.00 | 0.00 | 38 | 1006.2 |
| 20260503192652 | 21 | 241 | 0.0 | 24.1 | 0.00 | 0.00 | 0.00 | 36 | 1006.3 |
| 20260503192305 | 21 | 247 | 0.0 | 24.1 | 0.00 | 0.00 | 0.00 | 33 | 1006.2 |
| 20260503192226 | 21 | 247 | 0.0 | 11.3 | 0.00 | 0.00 | 0.00 | 46 | 1006.2 |
| 20260503192221 | 21 | 243 | 0.0 | 11.3 | 0.00 | 0.00 | 0.00 | 34 | 1006.2 |
| 20260503192203 | 21 | 251 | 0.0 | 14.5 | 0.00 | 0.00 | 0.00 | 34 | 1006.1 |
| 20260503191703 | 21 | 240 | 0.0 | 9.7 | 0.00 | 0.00 | 0.00 | 39 | 1006.2 |
| 20260503191502 | 21 | 102 | 0.0 | 9.7 | 0.00 | 0.00 | 0.00 | 39 | 1006.3 |
| 20260503191431 | 21 | 102 | 0.0 | 9.7 | 0.00 | 0.00 | 0.00 | 39 | 1006.3 |
| 20260503191303 | 21 | 16 | 0.0 | 9.7 | 0.00 | 0.00 | 0.00 | 39 | 1006.2 |
| 20260503191216 | 21 | 244 | 0.0 | 8.0 | 0.00 | 0.00 | 0.00 | 37 | 1006.3 |
| 20260503191200 | 21 | 285 | 0.0 | 8.0 | 0.00 | 0.00 | 0.00 | 35 | 1006.1 |
| 20260503190900 | 21 | 230 | 0.0 | 8.0 | 0.00 | 0.00 | 0.00 | 37 | 1006.3 |
| 20260503190657 | 21 | 255 | 0.0 | 8.0 | 0.00 | 0.00 | 0.00 | 40 | 1006.3 |
| 20260503190605 | 21 | 63 | 0.0 | 8.0 | 0.00 | 0.00 | 0.00 | 37 | 1006.2 |
| 20260503190434 | 21 | 63 | 0.0 | 9.7 | 0.00 | 0.00 | 0.00 | 37 | 1006.2 |
| 20260503190302 | 21 | 63 | 0.0 | 9.7 | 0.00 | 0.00 | 0.00 | 37 | 1006.3 |